Jackson, MS

7:47 AM CDT on April 23, 2018 (GMT -0500)
Jackson-Evers International

Weather History for KJAN - October, 2013

Change the Weather History Date:

Sunday, October 6, 2013

  Actual Average Record
Temperature  
Mean Temperature 65 °F 68 °F  
Max Temperature 74 °F 80 °F 97 °F (1911)
Min Temperature 56 °F 57 °F 36 °F (1932)
Degree Days  
Heating Degree Days 0 1  
Month to date heating degree days 0 6  
Since 1 July heating degree days 0 13  
Cooling Degree Days 0 5  
Month to date cooling degree days 69 33  
Year to date cooling degree days 2256 2159  
Growing Degree Days 15 (Base 50)    
Moisture  
Dew Point 64 °F    
Average Humidity 73    
Maximum Humidity 93    
Minimum Humidity 53    
Precipitation  
Precipitation 0.22 in 0.12 in 2.25 in (1982)
Month to date precipitation 0.28 0.71  
Year to date precipitation 51.31 41.02  
Sea Level Pressure  
Sea Level Pressure 29.90 in    
Wind  
Wind Speed 6 mph (NNW)    
Max Wind Speed 18 mph    
Max Gust Speed 23 mph    
Visibility 8 miles    
Events Rain , Thunderstorm    
T = Trace of Precipitation, MM = Missing Value Source: NWS Daily Summary

Daily Weather History Graph

Daily Weather History Graph

Search for Another Location

Airport or City:

Astronomy

Oct. 06, 2013 Rise Set
Actual Time 6:57 AM CDT 6:38 PM CDT
Civil Twilight 6:33 AM CDT 7:02 PM CDT
Nautical Twilight 6:04 AM CDT 7:31 PM CDT
Astronomical Twilight 5:36 AM CDT 7:59 PM CDT
Moon 8:34 AM CDT (10/6) 7:46 PM CDT (10/6)
Length of Visible Light 12h 29m
Length of Day
11h 40m
Waxing Crescent, 3% of the Moon is Illuminated
Oct 6
Waxing Crescent
Oct 11
First Quarter
Oct 18
Full
Oct 26
Last Quarter
Nov 3
New

Hourly Weather History & Observations

Time (CDT) Temp. Dew Point Humidity Pressure Visibility Wind Dir Wind Speed Gust Speed Precip Events Conditions
12:54 AM 72.0 °F 70.0 °F 93% 29.89 in 10.0 mi SE 9.2 mph - N/A   Clear
1:54 AM 73.0 °F 70.0 °F 90% 29.90 in 10.0 mi South 5.8 mph - N/A   Clear
2:54 AM 72.0 °F 70.0 °F 93% 29.87 in 10.0 mi South 5.8 mph - N/A   Clear
3:54 AM 71.1 °F 69.1 °F 93% 29.88 in 8.0 mi Calm Calm - N/A   Clear
4:50 AM 71.6 °F 69.8 °F 94% 29.89 in 10.0 mi East 3.5 mph - N/A Thunderstorm Overcast
4:54 AM 71.1 °F 69.1 °F 93% 29.88 in 10.0 mi Calm Calm - N/A Thunderstorm Overcast
5:01 AM 71.6 °F 69.8 °F 94% 29.89 in 10.0 mi Calm Calm - N/A Thunderstorm Overcast
5:18 AM 71.6 °F 69.8 °F 94% 29.89 in 9.0 mi Calm Calm - N/A Thunderstorm Overcast
5:30 AM 71.6 °F 69.8 °F 94% 29.89 in 9.0 mi Calm Calm - N/A Thunderstorm Thunderstorm
5:46 AM 71.6 °F 69.8 °F 94% 29.89 in 8.0 mi Calm Calm - N/A   Mostly Cloudy
5:54 AM 72.0 °F 70.0 °F 93% 29.88 in 8.0 mi NNW 4.6 mph - N/A   Mostly Cloudy
6:41 AM 71.6 °F 71.6 °F 100% 29.90 in 2.0 mi Variable 4.6 mph - 0.05 in Rain Rain
6:54 AM 72.0 °F 71.1 °F 97% 29.89 in 5.0 mi NNW 4.6 mph - 0.08 in Rain Light Rain
7:46 AM 73.4 °F 71.6 °F 94% 29.88 in 5.0 mi ENE 8.1 mph - 0.01 in   Mostly Cloudy
7:54 AM 73.0 °F 71.1 °F 93% 29.87 in 5.0 mi NNE 3.5 mph - 0.01 in   Mostly Cloudy
8:24 AM 73.4 °F 71.6 °F 94% 29.90 in 4.0 mi Calm Calm - 0.00 in Rain , Thunderstorm Light Thunderstorms and Rain
8:40 AM 73.4 °F 71.6 °F 94% 29.90 in 2.5 mi East 3.5 mph - 0.05 in Rain , Thunderstorm Thunderstorms and Rain
8:51 AM 73.4 °F 71.6 °F 94% 29.90 in 3.0 mi ESE 3.5 mph - 0.08 in Rain , Thunderstorm Thunderstorms and Rain
8:54 AM 73.0 °F 72.0 °F 96% 29.88 in 2.5 mi SE 6.9 mph - 0.08 in Rain , Thunderstorm Thunderstorms and Rain
8:58 AM 73.4 °F 71.6 °F 94% 29.88 in 2.5 mi SE 8.1 mph - 0.02 in Rain , Thunderstorm Thunderstorms and Rain
9:05 AM 73.4 °F 71.6 °F 94% 29.89 in 3.0 mi ESE 3.5 mph - 0.02 in Rain , Thunderstorm Light Thunderstorms and Rain
9:14 AM 73.4 °F 71.6 °F 94% 29.90 in 4.0 mi Calm Calm - 0.02 in Rain Light Rain
9:54 AM 68.0 °F 66.0 °F 93% 29.89 in 4.0 mi NW 13.8 mph 18.4 mph 0.04 in Rain Rain
10:13 AM 64.4 °F 62.6 °F 94% 29.92 in 4.0 mi NW 12.7 mph - 0.00 in Rain Light Rain
10:46 AM 62.6 °F 59.0 °F 88% 29.92 in 4.0 mi North 17.3 mph - 0.01 in   Overcast
10:54 AM 62.1 °F 59.0 °F 90% 29.91 in 6.0 mi North 12.7 mph - 0.01 in Rain Light Rain
11:43 AM 64.4 °F 59.0 °F 83% 29.94 in 10.0 mi NNW 9.2 mph - 0.00 in   Overcast
11:54 AM 64.0 °F 59.0 °F 84% 29.94 in 10.0 mi NNW 9.2 mph - 0.00 in   Overcast
12:54 PM 66.0 °F 59.0 °F 78% 29.93 in 10.0 mi NW 8.1 mph - N/A   Overcast
1:54 PM 68.0 °F 57.9 °F 70% 29.92 in 10.0 mi NW 10.4 mph - N/A   Overcast
2:54 PM 69.1 °F 55.9 °F 63% 29.90 in 10.0 mi NW 10.4 mph 17.3 mph N/A   Overcast
3:42 PM 71.6 °F 55.4 °F 57% 29.89 in 10.0 mi Variable 6.9 mph - N/A   Overcast
3:54 PM 71.1 °F 54.0 °F 55% 29.88 in 10.0 mi NNW 8.1 mph - N/A   Overcast
4:54 PM 70.0 °F 52.0 °F 53% 29.89 in 10.0 mi NW 8.1 mph - N/A   Scattered Clouds
5:54 PM 69.1 °F 53.1 °F 57% 29.89 in 10.0 mi NW 5.8 mph - N/A   Scattered Clouds
6:54 PM 66.9 °F 53.1 °F 61% 29.90 in 10.0 mi NW 8.1 mph - N/A   Scattered Clouds
7:54 PM 64.9 °F 52.0 °F 63% 29.92 in 10.0 mi NW 5.8 mph - N/A   Clear
8:54 PM 63.0 °F 51.1 °F 65% 29.95 in 10.0 mi NW 4.6 mph - N/A   Clear
9:54 PM 59.0 °F 53.1 °F 81% 29.96 in 10.0 mi Calm Calm - N/A   Clear
10:54 PM 57.9 °F 53.1 °F 84% 29.98 in 10.0 mi Calm Calm - N/A   Clear
11:54 PM 55.9 °F 53.1 °F 90% 29.97 in 10.0 mi Calm Calm - N/A   Clear